Location: *
(43.0833°N, 13.0500°E)
Time: 03:22:45
(UTC+00:00)

Tsikada Rocket - Pass Details

Date: 15 November 2019
Orbit: 958 x 1009 km, 82.9° (Epoch: 07 December)

Event Time Altitude Azimuth Distance (km) Brightness Sun altitude
Rises 17:13:59 0° 166° (SSE) 3,693 7.0 -16.4°
Reaches altitude 10° 17:16:35 10° 160° (SSE) 2,755 6.3 -16.9°
Maximum altitude 17:22:33 45° 90° (E) 1,339 4.3 -17.9°
Drops below altitude 10° 17:28:36 10° 20° (NNE) 2,794 6.1 -19.0°
Sets 17:31:15 0° 14° (NNE) 3,750 6.8 -19.5°
